sat.trackr.live / text

‹ back to catalog

ONEWEB-0349

NORAD 49281 · 2021-090C

PAYLOAD ACTIVE UNKNOWN

§ Identity

Operator
Country
UK
Launch date
2021-10-14
Launch site
VOSTO
Launch vehicle
Mass (kg)
RCS (m²)

Purposes: comms

External: N2YO · Heavens-Above · Gunter

§ Orbital elements

Epoch: 2026-09-19T18:32:21.604992Z

Period
109.03 min
Inclination
87.9138°
Eccentricity
0.0002065
Mean motion
13.20772558 rev/d
Perigee alt
1,180.2 km
Apogee alt
1,183.3 km
Semi-major
7,559.9 km
B*
1.2593e-4
RAAN
255.5709°
Arg perigee
89.3494°
Mean anomaly
270.7876°
Rev number
24,231

§ Raw data

ONEWEB-03491 49281U 21090C   26262.77247228  .00000064  00000+0  12593-3 0  99952 49281  87.9138 255.5709 0002065  89.3494 270.7876 13.20772558242314

JSON: /api/v1/satellites/49281 · /tle

For live sub-satellite position, see the globe view (requires WebGL).

§ Visibility from observer

Set your observer location to see the next 7 days of passes ≥ 10°. The values pass through the URL so the page stays shareable.

No JS? Fill the form by hand. The geolocation button needs JavaScript.